Regional Weather Roundup
Issued by NWS

Home | Current Version | Previous Version | Text Only | Print | Product List | Glossary Off
Versions: 1 2 3 4 5 6 7 8 9 10 11 12 13 14 15 16 17 18 19 20 21 22 23 24 25 26 27 28 29 30 31 32 33 34 35 36 37 38 39 40 41 42 43 44 45 46 47 48 49 50

000
ASUS43 KFSD 180202
RWRSD

WEATHER ROUNDUP FOR SOUTH DAKOTA
NATIONAL WEATHER SERVICE SIOUX FALLS SD
800 PM CST TUE JAN 17 2017

NOTE: "FAIR" INDICATES FEW OR NO CLOUDS BELOW 12,000 FEET WITH NO
SIGNIFICANT WEATHER AND/OR OBSTRUCTIONS TO VISIBILITY.


SDZ001>005-009-010-012>017-180300-
NORTHWEST AND NORTH CENTRAL SOUTH DAKOTA

CITY           SKY/WX    TMP DP  RH WIND       PRES   REMARKS
BUFFALO          N/A     35  21  56 W7        29.77F WCI  29
FAITH            N/A     24  14  65 SW10      29.86R WCI  14
MOBRIDGE       CLOUDY    16   9  74 SE10      29.82F WCI   4
$$

SDZ012>016-024>037-041>051-057-063-072>074-180300-
SOUTHWEST AND SOUTH CENTRAL SOUTH DAKOTA

CITY           SKY/WX    TMP DP  RH WIND       PRES   REMARKS
RAPID CTY ARPT CLOUDY    28  13  53 CALM      29.89S
PIERRE         CLOUDY    23  18  81 S5        29.90S WCI  17
CUSTER         CLOUDY    37  11  34 W6        29.92S
ELLSWORTH AFB  CLOUDY    32  12  43 SW3       29.88R
PHILIP         CLOUDY    27  19  72 W10       29.90S WCI  17
PINE RIDGE     CLOUDY    24  17  74 CALM      29.94R
SPEARFISH      FAIR      41  19  42 W8        29.88S
WINNER         FAIR      38  19  46 SW6       29.92S
$$

SDZ004>011-016>023-039-040-180300-
NORTHEAST SOUTH DAKOTA

CITY           SKY/WX    TMP DP  RH WIND       PRES   REMARKS
ABERDEEN       CLOUDY    15  10  80 S12       29.90F WCI   2
WATERTOWN      CLOUDY    17  14  88 S9        29.91F WCI   6
BROOKINGS      CLOUDY    22  19  89 S6        29.95R WCI  14
SISSETON         N/A     31  22  69 SW14      29.86F WCI  21
$$

SDZ017-020-022-023-036>040-048>070-180300-
SOUTHEAST SOUTH DAKOTA

CITY           SKY/WX    TMP DP  RH WIND       PRES   REMARKS
SIOUX FALLS    CLOUDY    27  25  92 S9        29.98F WCI  18
HURON          CLOUDY    26  23  88 SE10      29.93F WCI  16
CHAMBERLAIN    CLOUDY    28  25  88 CALM      29.92S
MITCHELL       CLOUDY    29  28  96 S9        29.96S WCI  20
YANKTON        CLOUDY    30  27  86 SE6       30.00F WCI  24
$$

ABBREVIATIONS USED IN REMARKS
   TC - TEMPERATURE IN CELSIUS
  WCI - WIND CHILL INDEX
   HX - HEAT INDEX
  VSB - VISIBILITY





USA.gov is the U.S. government's official web portal to all federal, state and local government web resources and services.